Date String (YYYY-MM-DD hh:mm:ss) UTC,Instrument flags,Ambient pressure (hPa),Sample flow (lpm),Bypass flow (lpm),Sample temperature (°C),Ambient temperature (°C),ASC tube jacket temperature (°C),LED temperature (°C),Box temperature (°C),Sample RH (%),Span deviation,Mass concentration (μg/m³),Mass concentration (μg/m³),Mass concentration (μg/m³)
DateTimeUTC,F1_M11,P_M11,Q1_M11,Q2_M11,T1_M11,T2_M11,T3_M11,T4_M11,T5_M11,U1_M11,ZSPAN_M11,X0_M11,X2_M11,X1_M11
2021-10-29 03:00:00,,0832.6,5.00,0.00,27.7,26.8,00.0,36.8,29.5,11.8,0000.0,0020.79,0006.65,0005.14
2021-10-29 03:01:00,,0832.6,5.01,0.00,27.7,26.8,00.0,36.8,29.5,11.8,0000.0,0020.79,0006.69,0005.12
2021-10-29 03:02:00,,0832.6,5.00,0.00,27.7,26.8,00.0,36.8,29.5,11.8,0000.0,0022.25,0006.72,0005.10
2021-10-29 03:03:00,,0832.6,5.00,0.00,27.7,26.8,00.0,36.8,29.5,11.8,0000.0,0022.59,0006.73,0005.10
2021-10-29 03:04:00,,0832.6,4.99,0.00,27.7,26.8,00.0,36.8,29.5,11.8,0000.0,0022.77,0006.74,0005.11
2021-10-29 03:05:00,,0832.5,5.00,0.00,27.7,26.8,00.0,36.8,29.5,11.8,0000.0,0022.31,0006.81,0005.11
2021-10-29 03:06:00,,0832.5,5.00,0.00,27.7,26.8,00.0,36.8,29.5,11.8,0000.0,0025.94,0006.87,0005.12
2021-10-29 03:07:00,,0832.5,5.00,0.00,27.7,26.8,00.0,36.8,29.5,11.9,0000.0,0027.18,0006.95,0005.13
2021-10-29 03:08:00,,0832.5,5.02,0.00,27.7,26.8,00.0,36.8,29.5,11.9,0000.0,0026.64,0006.94,0005.15
2021-10-29 03:09:00,,0832.5,4.99,0.00,27.7,26.8,00.0,36.8,29.5,11.9,0000.0,0026.05,0006.96,0005.19
2021-10-29 03:10:00,,0832.5,5.01,0.00,27.7,26.8,00.0,36.8,29.5,11.9,0000.0,0027.78,0007.01,0005.25
2021-10-29 03:11:00,,0832.5,5.00,0.00,27.7,26.8,00.0,36.8,29.5,11.9,0000.0,0027.27,0006.99,0005.30
2021-10-29 03:12:00,,0832.5,5.00,0.00,27.7,26.8,00.0,36.7,29.5,11.9,0000.0,0027.94,0006.97,0005.32
2021-10-29 03:13:00,,0832.5,4.99,0.00,27.7,26.8,00.0,36.7,29.4,11.9,0000.0,0027.85,0006.97,0005.35
2021-10-29 03:14:00,,0832.4,5.00,0.00,27.7,26.8,00.0,36.7,29.4,11.9,0000.0,0026.71,0006.96,0005.39
2021-10-29 03:15:00,,0832.4,4.99,0.00,27.7,26.8,00.0,36.7,29.4,11.9,0000.0,0025.67,0006.98,0005.45
2021-10-29 03:16:00,,0832.4,4.99,0.00,27.6,26.7,00.0,36.7,29.4,11.8,0000.0,0025.03,0006.94,0005.46
2021-10-29 03:17:00,,0832.5,5.01,0.00,27.6,26.7,00.0,36.7,29.4,11.8,0000.0,0022.67,0006.89,0005.47
2021-10-29 03:18:00,,0832.5,5.00,0.00,27.6,26.7,00.0,36.7,29.4,11.8,0000.0,0020.76,0006.89,0005.49
2021-10-29 03:19:00,,0832.5,5.00,0.00,27.6,26.7,00.0,36.7,29.4,11.8,0000.0,0020.78,0006.86,0005.46
2021-10-29 03:20:00,,0832.5,4.99,0.00,27.6,26.7,00.0,36.7,29.4,11.8,0000.0,0021.06,0006.92,0005.44
2021-10-29 03:21:00,,0832.5,5.01,0.00,27.6,26.7,00.0,36.7,29.4,11.8,0000.0,0019.74,0006.87,0005.40
2021-10-29 03:22:00,,0832.5,5.01,0.00,27.6,26.7,00.0,36.7,29.4,11.8,0000.0,0019.43,0006.85,0005.35
2021-10-29 03:23:00,,0832.5,5.00,0.00,27.6,26.7,00.0,36.7,29.4,11.8,0000.0,0018.77,0006.83,0005.35
2021-10-29 03:24:00,,0832.5,4.99,0.00,27.6,26.7,00.0,36.7,29.4,11.8,0000.0,0018.13,0006.83,0005.33
2021-10-29 03:25:00,,0832.4,5.01,0.00,27.6,26.7,00.0,36.7,29.4,11.7,0000.0,0018.30,0006.78,0005.27
2021-10-29 03:26:00,,0832.5,5.00,0.00,27.6,26.7,00.0,36.7,29.4,11.7,0000.0,0018.18,0006.73,0005.19
2021-10-29 03:27:00,,0832.4,5.00,0.00,27.6,26.7,00.0,36.7,29.4,11.7,0000.0,0018.17,0006.69,0005.14
2021-10-29 03:28:00,,0832.5,5.02,0.00,27.6,26.7,00.0,36.7,29.4,11.7,0000.0,0017.65,0006.63,0005.09
2021-10-29 03:29:00,,0832.5,4.99,0.00,27.6,26.7,00.0,36.7,29.4,11.7,0000.0,0017.32,0006.56,0005.05
2021-10-29 03:30:00,,0832.5,5.00,0.00,27.6,26.7,00.0,36.7,29.4,11.7,0000.0,0016.89,0006.59,0005.03
2021-10-29 03:31:00,,0832.5,5.01,0.00,27.6,26.7,00.0,36.7,29.4,11.7,0000.0,0016.91,0006.53,0005.00
2021-10-29 03:32:00,,0832.5,4.99,0.00,27.6,26.7,00.0,36.7,29.4,11.7,0000.0,0017.15,0006.50,0004.97
2021-10-29 03:33:00,,0832.5,5.00,0.00,27.6,26.7,00.0,36.7,29.4,11.7,0000.0,0017.61,0006.45,0004.96
2021-10-29 03:34:00,,0832.5,4.99,0.00,27.6,26.7,00.0,36.7,29.4,11.7,0000.0,0017.90,0006.36,0004.93
2021-10-29 03:35:00,,0832.5,5.00,0.00,27.6,26.7,00.0,36.7,29.4,11.8,0000.0,0016.99,0006.36,0004.95
2021-10-29 03:36:00,,0832.5,4.99,0.00,27.6,26.7,00.0,36.7,29.4,11.7,0000.0,0017.19,0006.36,0004.96
2021-10-29 03:37:00,,0832.5,5.00,0.00,27.6,26.7,00.0,36.7,29.4,11.7,0000.0,0017.23,0006.34,0004.95
2021-10-29 03:38:00,,0832.6,5.00,0.00,27.6,26.7,00.0,36.7,29.4,11.7,0000.0,0016.92,0006.31,0004.95
2021-10-29 03:39:00,,0832.6,5.01,0.00,27.6,26.7,00.0,36.7,29.4,11.7,0000.0,0017.05,0006.32,0004.99
2021-10-29 03:40:00,,0832.6,4.98,0.00,27.6,26.7,00.0,36.7,29.4,11.7,0000.0,0017.88,0006.36,0005.00
2021-10-29 03:41:00,,0832.6,5.01,0.00,27.6,26.7,00.0,36.7,29.4,11.7,0000.0,0017.54,0006.30,0005.02
2021-10-29 03:42:00,,0832.6,4.99,0.00,27.6,26.7,00.0,36.7,29.4,11.7,0000.0,0017.83,0006.21,0005.03
2021-10-29 03:43:00,,0832.6,4.99,0.00,27.6,26.7,00.0,36.7,29.5,11.7,0000.0,0017.53,0006.23,0005.05
2021-10-29 03:44:00,,0832.6,4.99,0.00,27.6,26.7,00.0,36.7,29.4,11.7,0000.0,0016.97,0006.22,0005.05
2021-10-29 03:45:00,,0832.6,5.02,0.00,27.6,26.7,00.0,36.7,29.5,11.7,0000.0,0016.28,0006.27,0005.06
2021-10-29 03:46:00,,0832.6,5.00,0.00,27.6,26.7,00.0,36.7,29.5,11.8,0000.0,0016.67,0006.27,0005.05
2021-10-29 03:47:00,,0832.6,5.00,0.00,27.6,26.7,00.0,36.7,29.5,11.7,0000.0,0017.79,0006.24,0005.00
2021-10-29 03:48:00,,0832.6,5.00,0.00,27.6,26.7,00.0,36.7,29.4,11.7,0000.0,0019.03,0006.23,0004.98
2021-10-29 03:49:00,,0832.6,4.99,0.00,27.6,26.7,00.0,36.7,29.5,11.7,0000.0,0019.14,0006.21,0004.95
2021-10-29 03:50:00,,0832.6,5.00,0.00,27.6,26.7,00.0,36.7,29.5,11.7,0000.0,0019.46,0006.19,0004.91
2021-10-29 03:51:00,,0832.7,4.99,0.00,27.6,26.7,00.0,36.7,29.4,11.7,0000.0,0018.82,0006.16,0004.86
2021-10-29 03:52:00,,0832.6,5.00,0.00,27.6,26.7,00.0,36.7,29.4,11.7,0000.0,0018.47,0006.09,0004.79
2021-10-29 03:53:00,,0832.6,5.02,0.00,27.6,26.7,00.0,36.7,29.4,11.7,0000.0,0017.80,0006.06,0004.75
2021-10-29 03:54:00,,0832.6,5.00,0.00,27.6,26.7,00.0,36.6,29.4,11.7,0000.0,0017.79,0006.02,0004.71
2021-10-29 03:55:00,,0832.6,5.00,0.00,27.6,26.7,00.0,36.6,29.4,11.8,0000.0,0018.16,0005.95,0004.66
2021-10-29 03:56:00,,0832.6,5.01,0.00,27.6,26.7,00.0,36.6,29.4,11.8,0000.0,0018.08,0005.88,0004.59
2021-10-29 03:57:00,,0832.6,4.99,0.00,27.6,26.7,00.0,36.6,29.4,11.8,0000.0,0018.37,0005.77,0004.51
2021-10-29 03:58:00,,0832.6,5.00,0.00,27.6,26.7,00.0,36.6,29.4,11.9,0000.0,0017.93,0005.76,0004.49
2021-10-29 03:59:00,,0832.6,5.00,0.00,27.6,26.7,00.0,36.6,29.4,11.8,0000.0,0016.68,0005.71,0004.50
